Flag Weather past 2 weeks in Qaanaaq, Greenland

Now
3 °F

Clear.


Feels Like: -9 °F
Forecast: 6 / 18 °F
Wind: 7 mph from East

Location: Thule A. B.

Current Time: Nov 24, 2014 at 4:21:09 AM

Latest Report: Nov 24, 2014 at 3:58 AM


Visibility: N/A

Pressure: 28.92 "Hg

Humidity: 72%

Dew point: -4 °F

Location of QaanaaqLocation

Historic Weather in Qaanaaq — Graph

°F

Qaanaaq temperature yesterday

Maximum temperature yesterday: 9 °F (at 12:58 AM)
Minimum temperature yesterday: -11 °F (at 10:02 AM)
Average temperature yesterday: -6 °F

Past Weeks' High & Low Weather Summary

 TemperatureHumidityPressure
High28 °F (Nov 16, 12:58 PM)93% (Nov 16, 6:58 PM)30.06 "Hg (Nov 16, 6:58 PM)
Low-11 °F (Nov 12, 9:58 PM)57% (Nov 21, 7:58 AM)28.66 "Hg (Nov 21, 3:58 AM)
Average3 °F77%29.56 "Hg
* Reported Nov 9 2:58 AM — Nov 24 2:58 AM, Qaanaaq, Weather by CustomWeather, © 2014

Note: Actual official high and low records may vary slightly from our data, if they occured in-between our weather recording intervals... More about our weather records

Advertising

Qaanaaq weather history for previous 24 hours

 ConditionsComfort  
Time TempWeatherWind HumidityBarometerVisibility
2:58 AM
Nov 24
0 °FSunny.No wind78%28.94 "HgN/A
1:58 AM1 °FClear.7 mph85%28.96 "HgN/A
12:58 AM-4 °FClear.7 mph77%29.00 "HgN/A
11:58 PM
Nov 23
-8 °FClear.7 mph77%29.02 "HgN/A
10:58 PM-9 °FClear.14 mph84%29.05 "HgN/A
9:58 PM-6 °FClear.9 mph84%29.09 "HgN/A
8:58 PM-2 °FSunny.8 mph84%29.12 "HgN/A
7:58 PM-8 °FSunny.8 mph84%29.14 "HgN/A
6:58 PM-11 °FSunny.6 mph84%29.17 "HgN/A
5:58 PM-8 °FSunny.6 mph77%29.21 "HgN/A
4:58 PM-9 °FSunny.6 mph77%29.24 "HgN/A
3:58 PM-9 °FSunny.9 mph84%29.26 "HgN/A
2:58 PM-4 °FSunny.9 mph84%29.29 "HgN/A
1:58 PM-9 °FSunny.8 mph84%29.33 "HgN/A
12:58 PM-8 °FSunny.5 mph84%29.36 "HgN/A
11:58 AM-9 °FSunny.2 mph77%29.38 "HgN/A
10:58 AM-8 °FSunny.6 mph84%29.40 "HgN/A
10:03 AM-9 °FSunny.6 mph77%29.45 "Hg4 mi
10:02 AM-11 °FSunny.6 mph84%29.45 "Hg2 mi
8:58 AM-4 °FSunny.10 mph84%29.43 "HgN/A
7:58 AM-4 °FClear.12 mph84%29.44 "HgN/A
6:58 AM-6 °FClear.9 mph84%29.45 "HgN/A
5:58 AM-6 °FClear.12 mph84%29.45 "HgN/A
4:58 AM-2 °FClear.9 mph84%29.47 "HgN/A
Weather by CustomWeather, © 2014

See weather overviewHow to use our weather pages